Theta_e
358 357 356 357 357 357 358 357 358 359 356 355 357 356 356 356 356 357 357 355 355 358 356 356 357 356 357 357 355 356 356 355 357 357 355 357 357 357 357 353 352 351
358 358 358 358 358 359 357 354 355 358 357 356 357 356 356 357 356 357 357 355 354 357 358 357 357 357 357 358 356 355 357 355 356 357 358 357 357 357 357 354 354 353
357 358 359 359 358 358 357 354 354 356 356 358 358 357 358 358 357 357 357 356 355 357 359 358 357 355 356 359 357 355 357 355 355 358 358 357 357 357 357 357 357 356
356 358 359 359 358 357 358 357 357 356 357 358 358 357 358 358 358 357 357 358 357 358 360 359 357 355 353 357 359 357 356 356 357 357 357 357 358 356 355 357 358 356
359 359 358 358 358 358 357 357 357 358 358 358 357 356 356 357 359 359 358 359 359 359 360 359 358 357 355 356 360 359 357 358 358 356 356 357 357 356 355 357 357 357
360 359 358 358 358 358 358 357 358 358 357 356 356 356 356 358 359 359 359 360 360 359 360 359 359 359 357 357 359 359 358 359 359 358 357 357 357 357 358 359 359 358
360 360 358 358 358 357 356 357 358 357 356 356 356 355 356 357 357 358 358 359 359 359 360 360 359 359 359 358 359 359 358 359 360 359 359 359 359 360 359 359 359 359
358 359 358 358 357 355 355 355 356 356 356 356 356 356 356 356 356 358 359 359 359 359 360 360 359 358 359 359 359 359 357 357 358 359 359 360 360 360 361 360 360 359
357 357 357 357 356 356 355 355 355 356 356 356 356 357 357 356 356 357 358 359 358 358 358 358 357 357 358 358 359 359 358 357 357 359 360 360 358 358 359 360 359 358
355 356 357 356 356 356 355 355 355 355 355 355 355 355 356 357 356 356 357 357 357 357 357 356 356 357 357 358 359 360 360 359 358 360 360 360 359 358 359 359 358 358
355 356 356 355 356 357 355 354 356 356 355 355 355 355 356 356 356 356 356 357 356 357 357 356 356 357 358 359 359 359 360 360 359 360 360 359 359 359 358 357 357 356
354 354 354 354 355 355 355 355 355 356 356 355 355 355 355 356 355 355 356 356 356 356 357 356 356 357 358 359 359 358 358 359 359 360 359 359 359 358 357 356 355 353
353 353 353 353 353 353 353 355 354 354 355 355 355 355 354 355 355 355 355 356 355 356 356 357 358 358 359 359 359 358 358 358 359 359 359 358 358 357 356 356 354 352
352 352 352 352 351 351 350 351 353 352 353 353 354 355 354 354 354 355 355 355 356 356 356 358 359 359 359 359 359 359 359 359 358 358 358 357 356 356 355 354 354 351
352 351 351 350 350 350 348 348 349 350 350 351 352 354 354 353 353 354 354 355 357 358 357 357 358 358 359 359 360 359 359 359 358 357 357 356 355 354 353 352 351 349
352 351 351 350 350 351 348 347 348 348 349 351 351 351 351 351 351 352 352 353 355 357 358 357 356 356 357 358 359 360 359 358 358 356 355 355 353 353 352 352 351 350
351 351 350 351 352 352 349 348 348 348 349 352 352 351 349 349 350 349 350 350 351 353 355 356 356 355 354 355 356 356 356 356 355 353 353 353 353 352 352 352 351 350
353 352 352 353 355 355 354 354 353 352 352 352 353 353 351 349 349 349 350 350 350 351 352 353 353 353 352 351 351 351 351 353 353 353 353 352 351 350 349 350 349 349
358 357 356 356 357 357 357 358 360 361 360 356 354 354 354 351 350 350 351 351 350 349 348 348 348 350 350 350 350 349 350 352 353 354 352 350 350 349 348 347 348 349
360 360 359 359 358 356 356 357 359 360 360 360 358 357 356 355 353 352 352 352 352 350 348 347 346 348 349 349 349 349 350 351 353 353 352 351 350 350 348 348 350 352
360 361 361 360 360 358 357 357 358 354 354 359 361 358 357 357 356 355 355 355 354 352 350 349 349 348 349 349 349 349 350 351 352 352 352 351 351 351 351 350 353 354
358 359 359 359 359 358 357 357 357 354 354 358 360 358 358 358 358 357 358 357 356 354 352 350 350 349 350 350 350 350 350 351 351 351 351 351 353 355 354 354 354 354
356 355 355 355 355 355 356 356 356 355 356 357 357 356 357 358 357 357 358 357 357 356 354 352 350 350 350 351 351 351 351 351 351 352 353 353 355 356 356 356 355 355
351 351 351 352 353 354 356 356 355 354 354 354 355 355 355 355 356 356 355 355 355 354 353 352 351 350 349 350 351 351 352 352 352 352 353 354 355 355 355 355 355 355
348 348 348 348 349 350 352 352 351 351 352 353 353 353 353 352 352 352 351 352 351 350 351 349 348 348 348 348 350 350 351 351 351 351 352 353 354 355 355 355 355 354
346 346 346 346 346 346 346 346 345 345 348 350 349 349 349 348 347 347 347 347 347 347 347 346 345 345 344 344 346 346 347 348 349 350 352 353 353 353 353 354 354 352
Wind_Speed
18 17 16 16 18 17 17 19 17 15 16 17 16 14 14 13 11 12 13 12 11 10 10 10 8 8 7 5 5 6 6 5 3 4 4 3 2 2 3 5 5 6
19 18 16 15 17 16 15 17 17 15 15 15 15 14 13 13 12 13 13 11 12 11 11 11 10 11 8 6 6 7 6 5 4 3 3 3 4 4 4 4 5 7
20 19 17 16 16 16 14 15 15 14 14 13 13 13 13 14 12 12 12 11 12 12 11 11 11 11 10 7 7 7 7 6 5 5 5 5 5 5 5 5 6 7
20 20 19 17 16 16 16 16 14 14 14 13 14 14 14 15 13 13 13 12 12 12 12 11 10 10 11 10 8 8 9 8 6 6 7 6 6 6 6 5 5 5
20 19 19 17 16 16 16 16 15 15 15 14 14 14 13 14 14 14 15 13 12 12 12 11 10 9 9 10 10 9 9 9 7 7 8 7 7 7 5 5 6 6
20 19 18 17 16 17 16 16 15 14 15 14 14 14 14 14 14 15 15 14 13 13 12 11 11 11 10 10 10 10 10 9 7 7 8 8 7 6 5 6 8 8
20 19 18 16 16 17 16 16 15 14 14 13 13 14 15 14 14 14 14 14 14 14 13 12 12 13 11 11 11 11 11 10 8 8 9 10 8 6 6 7 7 6
20 20 19 17 16 16 15 16 16 14 14 14 13 14 14 15 15 15 13 13 13 14 13 13 13 12 12 13 12 11 10 10 10 10 10 11 10 8 7 7 7 6
21 19 19 18 17 16 15 16 16 15 15 15 15 14 14 13 13 15 15 13 13 13 13 14 14 12 13 13 12 11 10 10 11 11 11 11 9 8 7 7 7 7
21 20 19 18 17 16 16 16 16 15 15 15 15 15 15 14 13 14 15 14 13 14 14 15 14 13 13 13 12 12 11 10 10 10 10 9 9 9 8 8 8 8
21 21 19 19 18 17 16 15 14 15 15 14 14 15 15 16 15 15 15 15 13 13 13 14 14 14 14 14 13 12 12 12 11 11 10 9 9 9 9 9 9 10
21 21 20 19 19 18 17 16 15 15 15 14 14 15 14 15 15 15 14 15 15 14 13 13 13 13 14 14 13 12 12 12 12 11 10 10 10 9 10 10 10 10
22 21 20 20 19 17 17 17 17 17 16 16 16 14 13 14 15 15 12 13 16 15 13 12 12 12 12 12 13 13 12 12 12 12 11 12 12 12 11 12 12 12
22 21 19 19 18 17 17 17 18 19 18 18 18 16 15 14 14 15 13 12 14 15 14 13 13 14 14 13 13 14 13 12 12 12 13 13 13 13 13 13 13 14
22 21 18 17 16 16 18 16 15 17 18 19 20 19 17 15 14 15 15 13 14 15 15 12 12 14 15 14 14 14 14 13 12 12 12 13 13 13 13 12 12 13
23 21 18 16 13 12 17 17 13 11 13 18 23 21 17 15 15 15 15 15 15 16 16 15 13 13 15 15 15 15 15 14 13 12 11 11 11 11 11 11 11 12
24 22 20 17 12 8 12 14 12 9 7 9 15 18 17 15 14 14 15 17 17 17 17 16 15 15 14 14 15 15 16 16 14 12 10 9 8 8 8 10 11 12
22 22 20 16 10 8 8 7 6 5 5 5 6 8 11 11 10 10 10 10 13 16 16 15 15 16 16 16 16 17 18 18 15 12 9 8 7 7 8 10 12 12
20 20 19 16 13 12 11 8 5 3 3 5 5 5 6 7 7 7 4 3 5 10 12 11 12 14 16 17 17 17 18 19 17 14 11 9 9 10 11 11 12 11
18 19 20 19 18 17 16 14 11 8 5 6 7 7 6 5 6 6 6 3 3 6 8 8 8 9 10 12 14 13 14 16 16 14 11 10 9 9 10 10 11 10
15 17 19 20 18 18 17 16 16 18 16 11 9 10 10 9 8 7 8 8 8 7 7 8 8 7 7 9 10 11 11 11 12 12 11 10 8 7 8 9 10 9
13 15 17 18 18 16 15 14 15 18 17 13 12 13 13 12 10 9 9 9 9 9 9 9 9 9 9 9 9 9 9 8 9 9 9 8 6 6 7 8 9 8
9 11 12 13 15 15 14 13 13 12 11 11 13 14 14 13 12 11 11 9 8 9 9 9 9 9 9 9 9 8 7 7 7 8 7 7 6 6 7 8 8 7
5 7 9 9 10 12 13 13 12 10 8 8 11 13 13 12 12 11 11 10 10 9 8 8 8 8 7 7 8 8 7 6 6 6 7 7 7 6 7 7 7 6
4 4 6 7 6 7 9 11 11 11 10 11 12 13 11 9 8 9 9 9 8 8 7 6 5 4 5 5 5 6 6 6 6 7 7 7 7 7 7 6 6 5
6 5 5 5 4 5 6 7 7 8 11 12 11 12 11 8 7 8 9 9 8 6 5 3 1 1 1 2 3 4 4 5 5 6 6 5 4 5 5 4 3 2
Wind_Direction
172 175 179 180 182 185 186 185 186 191 193 189 190 195 193 194 195 197 206 200 185 193 200 196 197 204 213 209 198 198 202 203 191 195 210 223 271 278 294 320 320 316
176 177 179 183 184 187 191 189 190 193 190 192 196 195 191 195 201 203 206 201 189 192 203 203 205 211 211 205 209 209 208 212 196 194 221 236 251 249 249 289 308 302
181 179 178 182 185 186 188 186 190 192 188 193 200 197 194 196 201 200 197 197 191 192 204 210 212 213 203 199 221 224 220 227 219 220 242 242 242 244 243 271 304 305
182 183 181 185 188 186 187 187 188 190 191 196 199 201 199 195 197 196 193 199 198 195 204 210 212 211 198 197 221 227 221 231 236 234 243 245 248 254 250 260 288 302
182 185 184 187 191 187 188 191 189 190 195 197 199 201 199 195 199 200 200 203 200 199 208 210 206 211 204 201 217 227 222 229 242 242 247 257 263 265 264 270 282 287
184 186 187 191 192 188 190 192 189 192 195 196 199 202 198 198 203 203 204 204 199 201 211 209 204 209 213 209 218 227 221 226 247 255 256 265 269 266 265 274 284 282
188 189 190 193 191 191 196 194 189 192 196 196 200 201 199 201 204 205 209 208 203 205 209 209 209 209 211 215 221 229 224 224 242 253 252 256 260 260 256 264 279 281
192 192 192 194 193 194 199 198 194 194 198 200 199 199 202 204 204 205 210 210 207 210 210 211 215 212 211 217 225 232 231 227 235 243 244 243 245 249 253 260 271 272
191 194 195 198 198 198 201 200 201 203 204 203 200 199 202 207 207 206 208 211 211 214 216 217 220 217 215 221 227 232 238 233 233 244 249 245 244 249 253 257 262 263
191 194 196 199 198 200 203 203 205 206 205 204 203 203 204 206 207 206 209 213 213 218 220 217 219 219 217 223 228 233 241 239 235 246 254 250 248 253 258 262 262 262
192 193 194 197 198 201 203 202 204 203 201 203 206 205 206 208 206 208 215 212 208 220 223 215 219 223 219 223 231 237 241 241 242 251 255 253 253 254 256 263 265 264
195 195 195 197 201 204 200 197 201 202 201 205 208 205 207 213 208 209 219 214 206 216 225 221 224 227 223 225 233 241 243 240 242 248 251 254 258 258 256 258 260 258
195 196 201 200 201 205 202 199 202 204 203 204 207 208 209 213 210 208 216 214 208 211 220 225 226 226 228 230 234 243 248 244 241 243 248 252 254 255 255 257 259 259
196 196 203 202 199 203 208 209 203 201 206 207 206 208 208 210 212 212 213 212 212 214 218 224 227 226 229 232 236 242 247 250 249 245 245 249 253 257 259 260 263 268
200 200 202 204 205 203 208 219 214 203 206 209 207 205 206 208 210 212 214 214 217 218 219 223 226 224 225 230 235 239 242 247 252 251 252 254 255 261 268 269 270 278
204 204 201 206 218 208 204 218 228 217 206 206 207 205 201 202 207 212 217 218 218 219 217 220 224 226 228 229 231 238 243 244 244 248 258 262 260 264 270 275 277 284
204 206 204 210 222 208 198 209 219 217 194 185 199 202 198 199 206 213 217 218 222 224 219 215 217 224 230 230 230 238 244 243 239 240 250 263 272 279 284 286 285 284
197 199 201 206 205 183 179 189 197 206 197 173 172 183 187 186 184 192 202 205 212 217 215 213 214 219 226 230 234 237 239 237 233 229 233 243 258 279 296 305 305 297
185 188 191 195 194 187 182 172 148 121 161 200 201 179 172 173 167 171 172 146 165 186 196 205 213 220 225 229 232 233 231 229 226 224 225 231 243 261 280 300 311 311
180 182 186 193 199 201 197 191 188 189 191 206 212 206 195 189 188 193 199 203 187 176 178 187 201 213 221 227 231 230 226 222 221 221 223 226 237 252 268 284 297 307
188 185 186 192 197 197 195 194 200 208 212 213 217 220 217 211 208 206 207 215 221 214 200 196 203 209 212 221 228 228 224 220 219 222 225 230 240 254 263 270 279 290
193 192 190 189 188 184 184 190 199 207 210 210 217 225 224 220 218 216 215 215 218 220 218 213 216 220 217 217 220 220 218 217 219 224 229 233 238 246 254 261 270 280
197 197 190 183 177 170 170 182 194 199 200 201 209 216 219 221 224 223 224 227 226 224 223 218 220 225 225 222 222 224 223 221 221 221 223 225 229 239 251 261 272 282
186 196 186 177 168 161 161 168 172 172 174 188 202 208 211 216 220 218 219 224 224 222 222 221 222 226 232 231 229 233 235 231 227 223 224 229 233 243 255 259 264 278
132 151 165 170 164 153 156 160 157 157 171 191 200 198 191 190 195 197 195 196 199 201 207 215 220 226 242 249 237 235 238 235 231 228 228 234 237 236 240 248 258 276
100 99 119 144 151 136 135 144 154 174 191 195 191 183 175 165 160 164 164 165 168 177 191 202 189 168 225 257 229 214 202 197 206 205 194 194 209 215 212 220 246 275